This demonstration page uses our WeatherBlox Daily Observations layout. Learn more.

Left ArrowRight Arrow

Hourly Observations for January 11, 2018

Temp ( °F °C ) Dew Point ( °F °C ) Humidity (%) Winds ( mph kmh ) Pressure ( in mb ) Visibility ( mi km ) Precip ( " mm )
12:08 am 00:08 Cloudy 19 -7 12 -11 73 73 N 37 59 29.88 1012 10 16 0.00 0.00
12:56 am 00:56 Windy with Snow Likely 18 -7.8 10 -12.2 71 71 N 31 50 29.84 1010 9 14 0.00 0.03
1:27 am 01:27 Windy with Snow Likely 16 -9 9 -13 73 73 NNW 30 48 29.97 1015 9 14 0.00 0.00
1:44 am 01:44 Windy with Snow Likely 16 -9 9 -13 73 73 NNW 33 54 29.97 1015 2 3 0.00 0.03
1:56 am 01:56 Windy with Snow Likely 14 -10 9 -12.8 80 80 NNW 31 50 29.89 1012 1 2 0.00 0.03
2:09 am 02:09 Windy with Snow Likely 14 -10 10 -12 85 85 NNW 26 43 30.03 1017 1 1 0.00 0.00
2:17 am 02:17 Cloudy with Snow 12 -11 9 -13 85 85 N 31 50 30.06 1018 1 1 0.00 0.03
2:30 am 02:30 Windy with Snow Likely 12 -11 9 -13 85 85 N 31 50 30.06 1018 1 1 0.00 0.03
2:56 am 02:56 Windy with Snow Likely 12 -11.1 9 -12.8 87 87 N 28 44 29.93 1014 1 1 0.00 0.03
3:28 am 03:28 Cloudy with Light Snow 12 -11 9 -13 85 85 NNW 17 28 30.09 1019 1 1 0.00 0.00
3:40 am 03:40 Cloudy with Snow 12 -11 9 -13 85 85 N 29 46 30.09 1019 1 1 0.00 0.03
3:56 am 03:56 Windy with Snow Likely 11 -11.7 8 -13.3 88 88 N 25 41 29.97 1015 1 1 0.00 0.03
4:18 am 04:18 Windy with Snow Likely 10 -12 7 -14 85 85 NNW 30 48 30.09 1019 1 1 0.00 0.03
4:27 am 04:27 Windy with Snow Likely 10 -12 7 -14 85 85 N 28 44 30.09 1019 1 2 0.00 0.03
4:39 am 04:39 Windy with Snow Likely 10 -12 7 -14 85 85 N 25 41 30.09 1019 2 3 0.00 0.00
4:42 am 04:42 Windy with Snow Likely 10 -12 7 -14 85 85 N 23 37 30.12 1020 3 4 0.00 0.03
4:51 am 04:51 Windy with Snow Likely 10 -12 7 -14 85 85 NNW 32 52 30.12 1020 3 5 0.00 0.00
4:56 am 04:56 Windy with Snow Likely 11 -11.7 5 -15 77 77 NNW 26 43 30.00 1016 3 4 0.00 0.03
5:04 am 05:04 Windy with Snow Likely 10 -12 5 -15 79 79 NNW 24 39 30.12 1020 3 5 0.00 0.03
5:18 am 05:18 Mostly Cloudy with Light Snow 10 -12 3 -16 72 72 N 25 41 30.12 1020 3 5 0.00 0.03
5:27 am 05:27 Partly Cloudy with Scattered Snow Showers 10 -12 3 -16 72 72 N 25 41 30.12 1020 4 6 0.00 0.00
5:56 am 05:56 Partly Cloudy with Scattered Snow Showers 9 -12.8 2 -16.7 73 73 N 30 48 30.03 1017 3 4 0.00 0.03
6:33 am 06:33 Windy with Snow Likely 9 -13 1 -17 72 72 N 28 44 30.21 1023 5 8 0.00 0.00
6:56 am 06:56 Windy with Snow Likely 7 -13.9 0 -17.8 73 73 NNW 28 44 30.08 1019 4 6 0.00 0.03
7:56 am 07:56 Clear 5 -15 -2 -18.9 72 72 N 25 41 30.13 1020 7 11 0.00 0.03
8:56 am 08:56 Sunny 5 -15 -3 -19.4 69 69 NNW 22 35 30.19 1022 10 16 0.00 0.03
9:56 am 09:56 Sunny 6 -14.4 -3 -19.4 66 66 N 29 46 30.24 1024 8 13 0.00 0.00
10:56 am 10:56 Sunny 9 -12.8 -1 -18.3 64 64 NNW 25 41 30.26 1025 10 16 0.00 0.03
11:56 am 11:56 Sunny 12 -11.1 1 -17.2 61 61 N 22 35 30.27 1025 10 16 0.00 0.00
12:56 pm 12:56 Sunny 14 -10 2 -16.7 58 58 NNW 24 39 30.26 1025 10 16 0.00 0.00
1:56 pm 13:56 Sunny 15 -9.4 3 -16.1 59 59 N 23 37 30.27 1025 10 16 0.00 0.00
2:56 pm 14:56 Sunny 15 -9.4 3 -16.1 59 59 NNW 21 33 30.29 1026 10 16 0.00 0.00
3:56 pm 15:56 Sunny 16 -8.9 3 -16.1 56 56 N 21 33 30.32 1027 10 16 0.00 0.00
4:56 pm 16:56 Sunny 14 -10 3 -16.1 61 61 NNW 17 28 30.37 1028 10 16 0.00 0.00
5:56 pm 17:56 Clear 11 -11.7 2 -16.7 67 67 N 14 22 30.41 1030 10 16 0.00 0.00
6:56 pm 18:56 Clear 10 -12.2 1 -17.2 67 67 N 12 19 30.42 1030 10 16 0.00 0.00
7:56 pm 19:56 Clear 7 -13.9 0 -17.8 73 73 N 10 17 30.45 1031 10 16 0.00 0.00
8:56 pm 20:56 Clear 6 -14.4 -1 -18.3 73 73 N 9 15 30.45 1031 10 16 0.00 0.00
9:56 pm 21:56 Clear 5 -15 -1 -18.3 76 76 N 13 20 30.44 1031 10 16 0.00 0.00
10:56 pm 22:56 Clear 4 -15.6 -2 -18.9 76 76 NNE 12 19 30.42 1030 10 16 0.00 0.00
11:56 pm 23:56 Clear 3 -16.1 -2 -18.9 79 79 NNW 6 9 30.45 1031 10 16 0.00 0.00

Powered by AerisWeather